EN

Hourly Weather Dzialki

Today, 27 October, Tuesday

Time Temperature Precipitation Wind Pressure Humidity
00:00 +11°C° 0 mm 4 mps 739 mmHg 84%
01:00 +11°C° 0 mm 4 mps 739 mmHg 85%
02:00 +11°C° 0 mm 4 mps 739 mmHg 85%
03:00 +11°C° 0 mm 4 mps 739 mmHg 85%
04:00 +11°C° 0 mm 4 mps 739 mmHg 85%
05:00 +11°C° 0 mm 4 mps 739 mmHg 85%
06:00 +11°C° 0 mm 4 mps 740 mmHg 86%
07:00 +11°C° 0 mm 4 mps 740 mmHg 87%
08:00 +10°C° 0 mm 4 mps 740 mmHg 88%
09:00 +12°C° 0 mm 4 mps 740 mmHg 82%
10:00 +13°C° 0 mm 4 mps 741 mmHg 76%
11:00 +15°C° 0 mm 4 mps 741 mmHg 71%
12:00 +17°C° 0 mm 4 mps 741 mmHg 68%
13:00 +18°C° 0 mm 4 mps 741 mmHg 65%
14:00 +18°C° 0 mm 4 mps 741 mmHg 62%
15:00 +17°C° 0 mm 3 mps 741 mmHg 66%
16:00 +16°C° 0 mm 3 mps 741 mmHg 71%
17:00 +14°C° 0 mm 3 mps 741 mmHg 75%
18:00 +14°C° 0 mm 3 mps 741 mmHg 77%
19:00 +13°C° 0 mm 3 mps 741 mmHg 79%
20:00 +12°C° 0 mm 3 mps 741 mmHg 81%
21:00 +12°C° 0 mm 3 mps 741 mmHg 84%
22:00 +11°C° 0 mm 3 mps 741 mmHg 87%
23:00 +11°C° 0 mm 3 mps 741 mmHg 89%

Tomorrow, 28 October, Wednesday

Time Temperature Precipitation Wind Pressure Humidity
00:00 +11°C° 0 mm 3 mps 741 mmHg 90%
01:00 +10°C° 0 mm 3 mps 742 mmHg 90%
02:00 +10°C° 0 mm 3 mps 742 mmHg 91%
03:00 +10°C° 0 mm 2 mps 742 mmHg 91%
04:00 +10°C° 0 mm 2 mps 742 mmHg 91%
05:00 +9°C° 0 mm 2 mps 742 mmHg 91%
06:00 +9°C° 0 mm 2 mps 742 mmHg 91%
07:00 +10°C° 0 mm 1 mps 742 mmHg 91%
08:00 +10°C° 0 mm 1 mps 743 mmHg 91%
09:00 +12°C° 0 mm 1 mps 743 mmHg 85%
10:00 +13°C° 0 mm 1 mps 743 mmHg 80%
11:00 +14°C° 0 mm 1 mps 743 mmHg 74%
12:00 +15°C° 0 mm 1 mps 743 mmHg 71%
13:00 +16°C° 0 mm 1 mps 743 mmHg 68%
14:00 +16°C° 0 mm 0 mps 743 mmHg 66%
15:00 +15°C° 0 mm 0 mps 743 mmHg 70%
16:00 +14°C° 0 mm 0 mps 743 mmHg 74%
17:00 +13°C° 0 mm 0 mps 743 mmHg 78%
18:00 +12°C° 0 mm 0 mps 743 mmHg 81%
19:00 +13°C° 0 mm 1 mps 743 mmHg 83%
20:00 +12°C° 0 mm 1 mps 743 mmHg 86%
21:00 +12°C° 0 mm 1 mps 743 mmHg 87%
22:00 +12°C° 0 mm 1 mps 743 mmHg 88%
23:00 +12°C° 0 mm 1 mps 743 mmHg 90%

Day after tomorrow, 29 October, Thursday

Time Temperature Precipitation Wind Pressure Humidity
00:00 +11°C° 0 mm 1 mps 743 mmHg 91%
01:00 +10°C° 0 mm 2 mps 743 mmHg 91%
02:00 +10°C° 0 mm 2 mps 743 mmHg 92%
03:00 +9°C° 0 mm 2 mps 743 mmHg 92%
04:00 +9°C° 0 mm 2 mps 743 mmHg 91%
05:00 +9°C° 0 mm 2 mps 743 mmHg 90%
06:00 +9°C° 0 mm 2 mps 743 mmHg 88%
07:00 +8°C° 0 mm 2 mps 743 mmHg 85%
08:00 +8°C° 0 mm 2 mps 743 mmHg 82%
09:00 +9°C° 0 mm 2 mps 743 mmHg 77%
10:00 +12°C° 0 mm 2 mps 743 mmHg 72%
11:00 +13°C° 0 mm 2 mps 743 mmHg 67%
12:00 +14°C° 0 mm 2 mps 743 mmHg 65%
13:00 +14°C° 0 mm 2 mps 743 mmHg 62%
14:00 +15°C° 0 mm 2 mps 743 mmHg 60%
15:00 +14°C° 0 mm 2 mps 743 mmHg 64%
16:00 +13°C° 0 mm 2 mps 743 mmHg 69%
17:00 +13°C° 0 mm 2 mps 743 mmHg 73%
18:00 +12°C° 0 mm 2 mps 743 mmHg 75%
19:00 +12°C° 0 mm 2 mps 743 mmHg 76%
20:00 +12°C° 0 mm 2 mps 743 mmHg 78%
21:00 +11°C° 0 mm 3 mps 743 mmHg 78%
22:00 +10°C° 0 mm 3 mps 743 mmHg 78%
23:00 +10°C° 0 mm 4 mps 744 mmHg 78%

30 October, Friday

Time Temperature Precipitation Wind Pressure Humidity
00:00 +10°C° 0.1 mm 4 mps 744 mmHg 80%
01:00 +10°C° 0.1 mm 4 mps 744 mmHg 82%
02:00 +8°C° 0.1 mm 5 mps 744 mmHg 85%
03:00 +8°C° 0 mm 4 mps 744 mmHg 85%
04:00 +7°C° 0 mm 4 mps 745 mmHg 85%
05:00 +7°C° 0 mm 4 mps 745 mmHg 85%
06:00 +6°C° 0 mm 4 mps 745 mmHg 85%
07:00 +6°C° 0 mm 4 mps 746 mmHg 84%
08:00 +6°C° 0 mm 4 mps 746 mmHg 84%
09:00 +6°C° 0 mm 4 mps 746 mmHg 81%
10:00 +7°C° 0 mm 4 mps 746 mmHg 78%
11:00 +8°C° 0 mm 4 mps 747 mmHg 75%
12:00 +8°C° 0 mm 4 mps 747 mmHg 75%
13:00 +8°C° 0 mm 5 mps 747 mmHg 75%
14:00 +8°C° 0 mm 5 mps 746 mmHg 75%
15:00 +7°C° 0 mm 4 mps 747 mmHg 76%
16:00 +7°C° 0 mm 4 mps 747 mmHg 76%
17:00 +7°C° 0 mm 4 mps 747 mmHg 77%
18:00 +7°C° 0 mm 4 mps 747 mmHg 78%
19:00 +7°C° 0 mm 3 mps 747 mmHg 78%
20:00 +7°C° 0 mm 3 mps 747 mmHg 79%
21:00 +7°C° 0 mm 3 mps 748 mmHg 80%
22:00 +7°C° 0 mm 3 mps 748 mmHg 82%
23:00 +7°C° 0 mm 3 mps 748 mmHg 83%

31 October, Saturday

Time Temperature Precipitation Wind Pressure Humidity
00:00 +5°C° 0 mm 3 mps 748 mmHg 85%
01:00 +6°C° 0 mm 2 mps 748 mmHg 86%
02:00 +5°C° 0 mm 2 mps 748 mmHg 87%
03:00 +5°C° 0 mm 2 mps 748 mmHg 88%
04:00 +5°C° 0 mm 2 mps 748 mmHg 89%
05:00 +5°C° 0 mm 2 mps 748 mmHg 90%
06:00 +5°C° 0 mm 2 mps 749 mmHg 89%
07:00 +5°C° 0 mm 2 mps 749 mmHg 89%
08:00 +5°C° 0 mm 2 mps 749 mmHg 88%
09:00 +6°C° 0 mm 2 mps 749 mmHg 85%
10:00 +7°C° 0 mm 2 mps 749 mmHg 82%
11:00 +8°C° 0 mm 2 mps 750 mmHg 78%
12:00 +8°C° 0 mm 2 mps 749 mmHg 75%
13:00 +9°C° 0 mm 2 mps 749 mmHg 72%
14:00 +10°C° 0 mm 2 mps 749 mmHg 68%
15:00 +9°C° 0 mm 2 mps 749 mmHg 72%
16:00 +8°C° 0 mm 2 mps 749 mmHg 76%
17:00 +7°C° 0 mm 2 mps 749 mmHg 80%
18:00 +7°C° 0 mm 2 mps 750 mmHg 82%
19:00 +6°C° 0 mm 2 mps 750 mmHg 85%
20:00 +6°C° 0 mm 2 mps 750 mmHg 87%
21:00 +6°C° 0 mm 1 mps 750 mmHg 88%
22:00 +6°C° 0 mm 1 mps 750 mmHg 88%
23:00 +6°C° 0 mm 1 mps 750 mmHg 88%

1 November, Sunday

Time Temperature Precipitation Wind Pressure Humidity
00:00 +6°C° 0 mm 1 mps 750 mmHg 89%
01:00 +5°C° 0 mm 1 mps 751 mmHg 90%
02:00 +5°C° 0 mm 1 mps 751 mmHg 91%
03:00 +5°C° 0 mm 1 mps 751 mmHg 92%
04:00 +5°C° 0 mm 1 mps 750 mmHg 93%
05:00 +4°C° 0 mm 1 mps 750 mmHg 94%
06:00 +4°C° 0 mm 1 mps 750 mmHg 94%
07:00 +4°C° 0 mm 1 mps 750 mmHg 94%
08:00 +4°C° 0 mm 1 mps 750 mmHg 95%
09:00 +5°C° 0 mm 2 mps 750 mmHg 90%
10:00 +6°C° 0 mm 2 mps 750 mmHg 86%
11:00 +7°C° 0 mm 3 mps 750 mmHg 81%
12:00 +8°C° 0 mm 3 mps 750 mmHg 80%
13:00 +8°C° 0 mm 3 mps 750 mmHg 80%
14:00 +8°C° 0 mm 4 mps 750 mmHg 79%
15:00 +9°C° 0 mm 3 mps 749 mmHg 80%
16:00 +8°C° 0 mm 3 mps 749 mmHg 80%
17:00 +8°C° 0 mm 3 mps 749 mmHg 81%
18:00 +8°C° 0 mm 3 mps 749 mmHg 83%
19:00 +8°C° 0 mm 2 mps 749 mmHg 85%
20:00 +8°C° 0 mm 2 mps 749 mmHg 87%
21:00 +7°C° 0 mm 2 mps 749 mmHg 89%
22:00 +7°C° 0 mm 2 mps 749 mmHg 92%
23:00 +6°C° 0 mm 2 mps 749 mmHg 94%
Show more